| time (UTC) | temp F | wind direction | speed knots | gust knots | rain 1hr in | rain 24hr in | rain mn in | humidity % | barometer mb |
| 20260510194524 | 71 | 13 | 0.9 | 7.8 | 0.00 | 0.00 | 0.00 | 26 | 1020.8 |
| 20260510193018 | 70 | 13 | 1.7 | 7.0 | 0.00 | 0.00 | 0.00 | 25 | 1020.8 |
| 20260510191518 | 70 | 13 | 0.0 | 5.2 | 0.00 | 0.00 | 0.00 | 27 | 1020.9 |
| 20260510190003 | 70 | 13 | 0.9 | 7.0 | 0.00 | 0.00 | 0.00 | 27 | 1021.1 |
| 20260510184503 | 69 | 13 | 0.9 | 8.7 | 0.00 | 0.00 | 0.00 | 29 | 1021.2 |
| 20260510183003 | 69 | 13 | 1.7 | 7.8 | 0.00 | 0.00 | 0.00 | 27 | 1021.4 |
| 20260510181503 | 68 | 13 | 0.9 | 5.2 | 0.00 | 0.00 | 0.00 | 28 | 1021.6 |
| 20260510180006 | 68 | 13 | 1.7 | 7.8 | 0.00 | 0.00 | 0.00 | 27 | 1021.8 |
| 20260510174503 | 67 | 13 | 0.9 | 7.0 | 0.00 | 0.00 | 0.00 | 28 | 1022.0 |
| 20260510173004 | 66 | 13 | 0.9 | 5.2 | 0.00 | 0.00 | 0.00 | 29 | 1022.1 |
| 20260510171504 | 66 | 13 | 1.7 | 8.7 | 0.00 | 0.00 | 0.00 | 28 | 1022.2 |
| 20260510170004 | 65 | 13 | 0.0 | 4.3 | 0.00 | 0.00 | 0.00 | 28 | 1022.1 |
| 20260510163005 | 64 | 13 | 1.7 | 5.2 | 0.00 | 0.00 | 0.00 | 29 | 1022.5 |
| 20260510161510 | 63 | 13 | 0.9 | 4.3 | 0.00 | 0.00 | 0.00 | 30 | 1022.5 |
| 20260510160006 | 62 | 13 | 0.0 | 3.5 | 0.00 | 0.00 | 0.00 | 34 | 1022.6 |
| 20260510154516 | 61 | 13 | 0.0 | 4.3 | 0.00 | 0.00 | 0.00 | 37 | 1022.5 |
| 20260510153028 | 59 | 13 | 0.0 | 4.3 | 0.00 | 0.00 | 0.00 | 35 | 1022.3 |
| 20260510151506 | 58 | 13 | 0.9 | 3.5 | 0.00 | 0.00 | 0.00 | 38 | 1022.1 |
| 20260510150009 | 57 | 13 | 0.9 | 3.5 | 0.00 | 0.00 | 0.00 | 38 | 1021.9 |
| 20260510144513 | 55 | 13 | 0.9 | 4.3 | 0.00 | 0.00 | 0.00 | 41 | 1021.8 |
| 20260510143012 | 54 | 13 | 0.0 | 1.7 | 0.00 | 0.00 | 0.00 | 45 | 1021.8 |
| 20260510141522 | 52 | 13 | 0.0 | 2.6 | 0.00 | 0.00 | 0.00 | 48 | 1021.6 |
| 20260510140005 | 50 | 13 | 0.0 | 0.0 | 0.00 | 0.00 | 0.00 | 51 | 1021.6 |
| 20260510134513 | 48 | 13 | 0.0 | 3.5 | 0.00 | 0.00 | 0.00 | 53 | 1021.5 |
| 20260510133017 | 47 | 13 | 0.0 | 2.6 | 0.00 | 0.00 | 0.00 | 56 | 1021.5 |
| 20260510131510 | 45 | 13 | 0.9 | 2.6 | 0.00 | 0.00 | 0.00 | 57 | 1021.3 |
| 20260510130028 | 44 | 13 | 0.0 | 1.7 | 0.00 | 0.00 | 0.00 | 60 | 1021.3 |
| 20260510124514 | 43 | 13 | 0.0 | 1.7 | 0.00 | 0.00 | 0.00 | 61 | 1021.0 |
| 20260510123014 | 43 | 13 | 0.0 | 1.7 | 0.00 | 0.00 | 0.00 | 63 | 1021.0 |
| 20260510121517 | 41 | 13 | 0.0 | 1.7 | 0.00 | 0.00 | 0.00 | 65 | 1020.8 |
| 20260510120020 | 41 | 13 | 0.0 | 0.0 | 0.00 | 0.00 | 0.00 | 64 | 1020.9 |
| 20260510114518 | 41 | 13 | 0.0 | 0.9 | 0.00 | 0.00 | 0.00 | 61 | 1020.7 |
| 20260510113032 | 41 | 13 | 0.0 | 0.0 | 0.00 | 0.00 | 0.00 | 59 | 1020.4 |
| 20260510111514 | 42 | 13 | 0.0 | 0.0 | 0.00 | 0.00 | 0.00 | 58 | 1020.5 |
| 20260510110023 | 42 | 13 | 0.0 | 0.0 | 0.00 | 0.00 | 0.00 | 56 | 1020.2 |
| 20260510104530 | 43 | 13 | 0.0 | 0.0 | 0.00 | 0.00 | 0.00 | 56 | 1020.0 |
| 20260510103021 | 43 | 13 | 0.0 | 0.0 | 0.00 | 0.00 | 0.00 | 54 | 1019.6 |
| 20260510101526 | 43 | 13 | 0.0 | 0.0 | 0.00 | 0.00 | 0.00 | 52 | 1019.6 |
| 20260510100005 | 44 | 13 | 0.0 | 0.0 | 0.00 | 0.00 | 0.00 | 51 | 1019.5 |
| 20260510094505 | 45 | 13 | 0.0 | 0.0 | 0.00 | 0.00 | 0.00 | 50 | 1019.4 |
| 20260510093007 | 46 | 13 | 0.0 | 0.0 | 0.00 | 0.00 | 0.00 | 48 | 1019.4 |
| 20260510090006 | 48 | 13 | 0.0 | 0.0 | 0.00 | 0.00 | 0.00 | 44 | 1019.4 |
| 20260510084503 | 48 | 13 | 0.0 | 0.9 | 0.00 | 0.00 | 0.00 | 43 | 1019.2 |
| 20260510083004 | 49 | 13 | 0.0 | 3.5 | 0.00 | 0.00 | 0.00 | 42 | 1019.1 |
| 20260510081511 | 49 | 13 | 0.0 | 3.5 | 0.00 | 0.00 | 0.00 | 42 | 1018.8 |
| 20260510080003 | 50 | 13 | 0.0 | 1.7 | 0.00 | 0.00 | 0.00 | 41 | 1018.6 |
| 20260510074519 | 50 | 13 | 0.0 | 1.7 | 0.00 | 0.00 | 0.00 | 40 | 1018.5 |
| 20260510073016 | 51 | 13 | 0.0 | 0.0 | 0.00 | 0.00 | 0.00 | 40 | 1018.0 |
| 20260510071510 | 51 | 13 | 0.0 | 2.6 | 0.00 | 0.00 | 0.00 | 39 | 1017.9 |
| 20260510070011 | 52 | 13 | 0.9 | 5.2 | 0.00 | 0.00 | 0.00 | 38 | 1017.7 |
| 20260510063027 | 52 | 13 | 1.7 | 5.2 | 0.00 | 0.00 | 0.00 | 37 | 1017.4 |
| 20260510061508 | 53 | 13 | 0.0 | 4.3 | 0.00 | 0.00 | 0.00 | 37 | 1017.4 |
| 20260510060013 | 53 | 13 | 0.9 | 7.8 | 0.00 | 0.00 | 0.00 | 36 | 1016.9 |
| 20260510053013 | 54 | 13 | 0.9 | 5.2 | 0.00 | 0.00 | 0.00 | 34 | 1016.5 |
| 20260510051521 | 55 | 13 | 0.9 | 5.2 | 0.00 | 0.00 | 0.00 | 33 | 1016.3 |
| 20260510050024 | 55 | 13 | 1.7 | 7.0 | 0.00 | 0.00 | 0.00 | 33 | 1016.1 |
| 20260510044513 | 55 | 13 | 1.7 | 3.5 | 0.00 | 0.00 | 0.00 | 33 | 1016.1 |
| 20260510040018 | 57 | 13 | 1.7 | 5.2 | 0.00 | 0.00 | 0.00 | 33 | 1015.4 |
| 20260510034525 | 57 | 13 | 1.7 | 5.2 | 0.00 | 0.00 | 0.00 | 33 | 1015.2 |
| 20260510033012 | 58 | 13 | 0.0 | 4.3 | 0.00 | 0.00 | 0.00 | 33 | 1015.0 |
| 20260510030017 | 59 | 13 | 0.0 | 5.2 | 0.00 | 0.00 | 0.00 | 33 | 1014.6 |
| 20260510024515 | 60 | 13 | 0.9 | 2.6 | 0.00 | 0.00 | 0.00 | 32 | 1014.1 |
| 20260510023022 | 60 | 13 | 1.7 | 5.2 | 0.00 | 0.00 | 0.00 | 32 | 1013.9 |
| 20260510021523 | 61 | 13 | 0.0 | 3.5 | 0.00 | 0.00 | 0.00 | 32 | 1013.6 |
| 20260510013024 | 63 | 13 | 0.9 | 5.2 | 0.00 | 0.00 | 0.00 | 30 | 1012.6 |
| 20260510011523 | 64 | 13 | 0.9 | 7.0 | 0.00 | 0.00 | 0.00 | 30 | 1012.4 |
| 20260510010005 | 65 | 13 | 1.7 | 7.8 | 0.00 | 0.00 | 0.00 | 29 | 1012.3 |
| 20260510004504 | 66 | 13 | 0.9 | 4.3 | 0.00 | 0.00 | 0.00 | 30 | 1012.1 |
| 20260510003004 | 66 | 13 | 1.7 | 7.8 | 0.00 | 0.00 | 0.00 | 30 | 1011.7 |
| 20260510001506 | 67 | 13 | 0.9 | 5.2 | 0.00 | 0.00 | 0.00 | 29 | 1011.5 |
| 20260510000004 | 67 | 13 | 1.7 | 7.8 | 0.00 | 0.00 | 0.00 | 30 | 1011.5 |
| 20260509234509 | 68 | 13 | 2.6 | 8.7 | 0.00 | 0.00 | 0.00 | 30 | 1011.3 |
| 20260509233030 | 68 | 13 | 1.7 | 8.7 | 0.00 | 0.00 | 0.00 | 29 | 1011.1 |
| 20260509231504 | 69 | 13 | 2.6 | 8.7 | 0.00 | 0.00 | 0.00 | 29 | 1010.9 |
| 20260509223007 | 71 | 280 | 2.6 | 8.7 | 0.00 | 0.00 | 0.00 | 33 | 1010.3 |
| 20260509221512 | 71 | 334 | 1.7 | 8.7 | 0.00 | 0.00 | 0.00 | 36 | 1010.0 |
| 20260509214509 | 70 | 265 | 0.0 | 7.8 | 0.00 | 0.00 | 0.00 | 42 | 1009.9 |
| 20260509211521 | 69 | 13 | 0.9 | 7.8 | 0.00 | 0.00 | 0.00 | 44 | 1009.9 |
| 20260509210008 | 69 | 13 | 1.7 | 7.8 | 0.00 | 0.00 | 0.00 | 45 | 1009.9 |
| 20260509201518 | 69 | 13 | 3.5 | 8.7 | 0.00 | 0.00 | 0.00 | 43 | 1009.7 |
| 20260509200020 | 70 | 13 | 1.7 | 7.8 | 0.00 | 0.00 | 0.00 | 41 | 1009.8 |